User: anonymous
Location: Fort Wayne
(41.1310°N, 85.1290°W)
Time: 14:52:15
(UTC-04:00)
Language:

BREEZE-M DEB (TANK) - Orbit

View from above orbital plane
View from above orbital plane
View from above satellite
View from above satellite

Ground track
Ground track

The orbit data is extracted from the following two-line orbital elements,

1 27821U 03024B   14245.37051146  .00004243  00000-0  46592-3 0  4696
2 27821 049.5730 098.0074 5013676 342.6470 021.6862 05.62933930222328
Epoch (UTC): 02 September 2014 08:53:32
Eccentricity: 0.5013676
inclination: 49.5730°
perigee height: 278 km
apogee height: 13662 km
right ascension of ascending node: 98.0074°
argument of perigee: 342.6470°
revolutions per day: 5.62933930
mean anomaly at epoch: 21.6862°
orbit number at epoch: 22232

The dashed part of the orbit path shows where the satellite is in the earth's shadow,  

DLR